Weather History for KROS - May, 2013

Change the Weather History Date:

Thursday, May 9, 2013

  Actual Average (KCBG) Record (KCBG)
Temperature  
Mean Temperature 48 °F -  
Max Temperature 56 °F 63 °F - (-1)
Min Temperature 39 °F 40 °F - (-1)
Degree Days  
Heating Degree Days 17    
Moisture  
Dew Point 42 °F    
Average Humidity 81    
Maximum Humidity 93    
Minimum Humidity 56    
Precipitation  
Precipitation 0.04 in - - ()
Sea Level Pressure  
Sea Level Pressure 30.07 in    
Wind  
Wind Speed 9 mph (NNE)    
Max Wind Speed 20 mph    
Max Gust Speed 26 mph    
Visibility 10 miles    
Events Rain    
Averages and records for this station are not official NWS values.
T = Trace of Precipitation, MM = Missing Value Source: NWS Daily Summary

Daily Weather History Graph

Daily Weather History Graph

Search for Another Location

Airport or City:

Trip Planner

Search our weather history database for the weather conditions in past years. The results will help you decide how hot, cold, wet, or windy it might be!

Date:

Astronomy

May. 09, 2013 Rise Set
Actual Time 5:47 AM CDT 8:29 PM CDT
Civil Twilight 5:13 AM CDT 9:03 PM CDT
Nautical Twilight 4:30 AM CDT 9:46 PM CDT
Astronomical Twilight 3:41 AM CDT 10:37 PM CDT
Moon 5:34 AM CDT (5/9) 8:24 PM CDT (5/9)
Length of Visible Light 15h 49m
Length of Day
14h 41m
Waning Crescent, 0% of the Moon is Illuminated
May 9
Waning Crescent
May 9
New
May 17
First Quarter
May 24
Full
May 31
Last Quarter

Hourly Weather History & Observations

Time (CDT) Temp. Windchill Dew Point Humidity Pressure Visibility Wind Dir Wind Speed Gust Speed Precip Events Conditions
12:15 AM 56.5 °F - 52.3 °F 86% 30.02 in 10.0 mi NW 4.6 mph - N/A Rain Light Rain
12:35 AM 56.3 °F - 52.7 °F 88% 30.02 in 10.0 mi NNW 6.9 mph - 0.01 in   Overcast
12:56 AM 56.1 °F - 52.5 °F 88% 30.02 in 10.0 mi NNW 4.6 mph - 0.01 in   Overcast
1:15 AM 56.3 °F - 52.7 °F 88% 30.02 in 10.0 mi North 4.6 mph - N/A   Overcast
1:35 AM 55.6 °F - 52.3 °F 89% 30.02 in 10.0 mi North 4.6 mph - N/A   Overcast
1:56 AM 55.4 °F - 52.3 °F 89% 30.01 in 10.0 mi North 4.6 mph - N/A   Overcast
2:15 AM 55.6 °F - 52.7 °F 90% 30.01 in 10.0 mi North 4.6 mph - N/A   Overcast
2:35 AM 54.9 °F - 52.2 °F 91% 30.01 in 10.0 mi North 3.5 mph - N/A   Overcast
2:56 AM 54.7 °F - 52.2 °F 91% 30.01 in 10.0 mi North 3.5 mph - N/A   Overcast
3:15 AM 55.0 °F - 52.3 °F 91% 30.00 in 10.0 mi North 4.6 mph - N/A   Overcast
3:35 AM 54.7 °F - 52.2 °F 91% 30.00 in 10.0 mi North 4.6 mph - N/A   Overcast
3:55 AM 54.7 °F - 52.2 °F 91% 30.00 in 10.0 mi North 3.5 mph - N/A   Overcast
4:15 AM 54.9 °F - 52.2 °F 91% 30.00 in 10.0 mi NNE 4.6 mph - N/A   Overcast
4:36 AM 55.0 °F - 52.2 °F 90% 30.00 in 10.0 mi NNE 4.6 mph - N/A   Overcast
4:55 AM 54.9 °F - 52.2 °F 91% 30.00 in 10.0 mi North 6.9 mph - N/A   Overcast
5:16 AM 54.9 °F - 52.3 °F 91% 30.00 in 10.0 mi NNE 6.9 mph - N/A   Overcast
5:36 AM 54.7 °F - 52.2 °F 91% 30.00 in 10.0 mi NNE 6.9 mph - N/A   Overcast
5:55 AM 54.7 °F - 52.2 °F 91% 30.00 in 10.0 mi NNE 8.1 mph - N/A   Overcast
6:16 AM 54.5 °F - 51.8 °F 91% 30.00 in 10.0 mi NNE 8.1 mph - N/A   Overcast
6:36 AM 54.3 °F - 51.8 °F 91% 30.01 in 10.0 mi NNE 6.9 mph - N/A   Overcast
6:55 AM 53.8 °F - 51.4 °F 92% 30.02 in 10.0 mi NNE 11.5 mph 16.1 mph N/A   Overcast
7:16 AM 52.5 °F - 50.0 °F 91% 30.03 in 10.0 mi NNE 10.4 mph - N/A   Overcast
7:36 AM 51.4 °F - 49.1 °F 92% 30.03 in 10.0 mi NE 8.1 mph 16.1 mph N/A   Overcast
7:55 AM 50.7 °F - 48.4 °F 92% 30.03 in 10.0 mi NNE 11.5 mph - N/A   Overcast
8:16 AM 49.6 °F - 47.3 °F 92% 30.03 in 10.0 mi NNE 10.4 mph 16.1 mph N/A   Overcast
8:35 AM 49.3 °F - 47.1 °F 92% 30.03 in 10.0 mi NNE 11.5 mph - N/A   Overcast
8:56 AM 49.3 °F - 46.9 °F 92% 30.04 in 10.0 mi NNE 6.9 mph - N/A   Overcast
9:15 AM 49.1 °F - 46.9 °F 92% 30.04 in 10.0 mi NNE 10.4 mph - N/A   Overcast
9:35 AM 48.2 °F - 46.2 °F 93% 30.05 in 10.0 mi NNE 9.2 mph - N/A   Overcast
9:56 AM 48.0 °F - 45.9 °F 92% 30.05 in 10.0 mi NNE 9.2 mph - 0.02 in Rain Light Rain
10:35 AM 47.7 °F - 45.9 °F 93% 30.06 in 10.0 mi NNE 10.4 mph - 0.01 in   Overcast
10:56 AM 47.3 °F - 45.3 °F 93% 30.07 in 10.0 mi NNE 8.1 mph 17.3 mph 0.01 in   Overcast
11:15 AM 46.8 °F - 45.0 °F 93% 30.08 in 10.0 mi NNE 10.4 mph 16.1 mph N/A   Overcast
11:35 AM 46.4 °F 41.1 °F 44.2 °F 92% 30.08 in 10.0 mi NNE 11.5 mph - N/A   Overcast
12:15 PM 46.4 °F 40.7 °F 43.9 °F 91% 30.09 in 10.0 mi NNE 12.7 mph 18.4 mph N/A   Overcast
12:35 PM 46.4 °F 40.7 °F 43.7 °F 90% 30.09 in 10.0 mi NNE 12.7 mph 20.7 mph N/A   Overcast
12:56 PM 46.4 °F 39.8 °F 43.7 °F 90% 30.09 in 10.0 mi NNE 16.1 mph - N/A   Overcast
1:15 PM 46.4 °F 41.1 °F 43.2 °F 88% 30.10 in 10.0 mi NNE 11.5 mph - N/A   Overcast
1:35 PM 46.4 °F 40.4 °F 42.3 °F 85% 30.10 in 10.0 mi NE 13.8 mph 21.9 mph N/A   Overcast
1:56 PM 45.9 °F 39.4 °F 41.4 °F 84% 30.11 in 10.0 mi NNE 15.0 mph 21.9 mph N/A   Overcast
2:15 PM 45.7 °F 39.8 °F 41.0 °F 84% 30.11 in 10.0 mi NNE 12.7 mph - N/A   Overcast
2:35 PM 44.8 °F 37.4 °F 40.5 °F 85% 30.11 in 10.0 mi NNE 17.3 mph 23.0 mph N/A   Overcast
2:56 PM 45.1 °F 39.5 °F 41.0 °F 85% 30.11 in 10.0 mi NNE 11.5 mph 19.6 mph N/A   Overcast
3:15 PM 45.5 °F 38.9 °F 40.5 °F 83% 30.11 in 10.0 mi NNE 15.0 mph 19.6 mph N/A   Overcast
3:35 PM 45.5 °F 38.9 °F 40.3 °F 82% 30.11 in 10.0 mi NNE 15.0 mph 19.6 mph N/A   Overcast
3:56 PM 45.9 °F 39.4 °F 40.1 °F 80% 30.11 in 10.0 mi NNE 15.0 mph 23.0 mph N/A   Overcast
4:15 PM 46.0 °F 39.0 °F 39.4 °F 78% 30.11 in 10.0 mi NNE 17.3 mph 24.2 mph N/A   Overcast
4:35 PM 46.2 °F 39.5 °F 39.2 °F 76% 30.10 in 10.0 mi NNE 16.1 mph 24.2 mph N/A   Overcast
4:56 PM 46.4 °F 40.1 °F 38.8 °F 75% 30.11 in 10.0 mi NNE 15.0 mph 20.7 mph N/A   Overcast
5:15 PM 46.2 °F 38.7 °F 37.6 °F 72% 30.11 in 10.0 mi NE 19.6 mph 23.0 mph N/A   Overcast
5:35 PM 46.0 °F 38.8 °F 37.0 °F 71% 30.11 in 10.0 mi NNE 18.4 mph 26.5 mph N/A   Overcast
5:56 PM 45.5 °F 38.6 °F 35.1 °F 67% 30.11 in 10.0 mi NE 16.1 mph 23.0 mph N/A   Overcast
6:15 PM 45.5 °F 38.6 °F 33.8 °F 64% 30.12 in 10.0 mi NE 16.1 mph 25.3 mph N/A   Overcast
6:35 PM 45.0 °F 37.9 °F 32.0 °F 60% 30.12 in 10.0 mi NE 16.1 mph 25.3 mph N/A   Overcast
6:56 PM 44.4 °F 38.2 °F 32.0 °F 62% 30.12 in 10.0 mi NE 12.7 mph 20.7 mph N/A   Overcast
7:15 PM 44.6 °F 39.7 °F 32.0 °F 61% 30.12 in 10.0 mi NE 9.2 mph 20.7 mph N/A   Overcast
7:35 PM 44.1 °F 37.1 °F 32.0 °F 63% 30.12 in 10.0 mi NE 15.0 mph 24.2 mph N/A   Overcast
7:56 PM 43.7 °F 36.9 °F 32.2 °F 64% 30.13 in 10.0 mi NE 13.8 mph 19.6 mph N/A   Overcast
8:15 PM 43.5 °F 37.1 °F 32.0 °F 64% 30.13 in 10.0 mi NE 12.7 mph 17.3 mph N/A   Overcast
8:35 PM 43.5 °F 37.1 °F 31.5 °F 63% 30.13 in 10.0 mi NE 12.7 mph 17.3 mph N/A   Overcast
8:56 PM 43.2 °F 37.4 °F 30.4 °F 61% 30.14 in 10.0 mi NE 10.4 mph 16.1 mph N/A   Overcast
9:15 PM 42.8 °F 36.2 °F 29.5 °F 59% 30.14 in 10.0 mi NE 12.7 mph 17.3 mph N/A   Overcast
9:35 PM 42.8 °F 36.2 °F 28.9 °F 58% 30.14 in 10.0 mi NNE 12.7 mph 18.4 mph N/A   Overcast
9:56 PM 42.1 °F 35.7 °F 27.5 °F 56% 30.15 in 10.0 mi NE 11.5 mph 17.3 mph N/A   Mostly Cloudy
10:15 PM 41.9 °F 35.0 °F 27.5 °F 57% 30.14 in 10.0 mi NE 12.7 mph 17.3 mph N/A   Mostly Cloudy
10:35 PM 41.4 °F 35.2 °F 27.7 °F 58% 30.15 in 10.0 mi NE 10.4 mph - N/A   Scattered Clouds
10:56 PM 41.2 °F 34.1 °F 27.9 °F 59% 30.15 in 10.0 mi NE 12.7 mph - N/A   Scattered Clouds
11:15 PM 40.6 °F 33.4 °F 27.9 °F 60% 30.15 in 10.0 mi NE 12.7 mph 18.4 mph N/A   Mostly Cloudy
11:35 PM 40.3 °F 33.9 °F 28.2 °F 62% 30.15 in 10.0 mi NNE 10.4 mph 20.7 mph N/A   Scattered Clouds
11:56 PM 39.7 °F 33.2 °F 28.2 °F 63% 30.15 in 10.0 mi NNE 10.4 mph 17.3 mph N/A   Scattered Clouds